User: anonymous
Location: Columbia
(38.9520°N, 92.3340°W)
Time: 10:43:35
(UTC-05:00)
Language:

Cosmos 158 Rocket - Orbit

View from above orbital plane
View from above orbital plane
View from above satellite
View from above satellite

Ground track
Ground track

The orbit data is extracted from the following two-line orbital elements,

1 02802U 67045B   14260.14675178  .00000297  00000-0  93852-4 0  5564
2 02802 074.0120 235.3400 0066584 172.2883 187.9315 14.43231731484105
Epoch (UTC): 17 September 2014 03:31:19
Eccentricity: 0.0066584
inclination: 74.0120°
perigee height: 700 km
apogee height: 795 km
right ascension of ascending node: 235.3400°
argument of perigee: 172.2883°
revolutions per day: 14.43231731
mean anomaly at epoch: 187.9315°
orbit number at epoch: 48410

The dashed part of the orbit path shows where the satellite is in the earth's shadow,  

DLR